User: anonymous   Login
Location: Lafig�re
(44.4503°N, 4.0357°E)
Time: 16:41:50
(UTC+00:00)
Language:

Meteor 2-5 Rocket - Orbit

View from above orbital plane
View from above orbital plane
View from above satellite
View from above satellite

Ground track
Ground track

The orbit data is extracted from the following two-line orbital elements,

1 11608U 79095B   20337.54031475  .00000024  00000-0  70420-5 0  9994
2 11608  81.2155  64.0161 0053824 209.5901 150.2219 14.06165897107528
Epoch (UTC): 02 December 2020 12:58:03
Eccentricity: 0.0053824
inclination: 81.2155°
perigee height: 833 km
apogee height: 911 km
right ascension of ascending node: 64.0161°
argument of perigee: 209.5901°
revolutions per day: 14.06165897
mean anomaly at epoch: 150.2219°
orbit number at epoch: 10752

The dashed part of the orbit path shows where the satellite is in the earth's shadow,  

DLR